Temp
-16 -16 -16 -16 -16 -16 -16 -16 -15 -15 -15 -15 -15 -16 -16 -15 -15 -15 -15 -15 -15 -15 -15 -16 -16 -16 -16 -16 -16 -17 -17 -17 -17 -18 -17 -17 -18 -18 -18 -19 -19 -19 -19
-15 -15 -16 -16 -16 -16 -16 -16 -16 -16 -15 -15 -16 -16 -15 -15 -15 -15 -15 -15 -15 -15 -15 -16 -16 -16 -16 -17 -17 -18 -18 -18 -18 -18 -17 -18 -18 -19 -19 -19 -19 -19 -19
-15 -15 -16 -16 -16 -16 -16 -16 -16 -16 -16 -16 -16 -16 -16 -16 -16 -15 -15 -15 -15 -15 -16 -16 -16 -16 -16 -17 -17 -17 -18 -18 -18 -18 -19 -19 -19 -19 -19 -19 -20 -20 -20
-16 -16 -15 -15 -16 -16 -16 -16 -16 -16 -16 -16 -16 -15 -16 -16 -15 -15 -15 -15 -15 -15 -16 -16 -16 -16 -17 -17 -17 -18 -19 -18 -18 -19 -19 -19 -19 -19 -19 -20 -20 -20 -21
-16 -16 -16 -16 -16 -15 -15 -16 -16 -16 -16 -16 -16 -16 -15 -15 -16 -15 -15 -15 -15 -16 -16 -16 -16 -17 -17 -17 -18 -18 -19 -19 -19 -19 -19 -20 -20 -20 -20 -20 -20 -20 -21
-16 -16 -16 -15 -16 -16 -16 -16 -16 -16 -16 -16 -16 -16 -15 -16 -16 -16 -16 -16 -16 -16 -16 -17 -17 -17 -17 -18 -18 -19 -19 -19 -19 -19 -20 -20 -20 -20 -20 -20 -20 -21 -22
-16 -16 -16 -16 -16 -16 -16 -16 -16 -16 -16 -16 -16 -16 -16 -16 -16 -16 -16 -16 -16 -16 -17 -17 -17 -18 -18 -18 -18 -19 -19 -19 -19 -20 -20 -20 -20 -20 -20 -20 -21 -21 -22
-16 -16 -16 -16 -16 -17 -16 -16 -16 -16 -16 -16 -16 -16 -16 -16 -16 -16 -16 -16 -16 -17 -17 -17 -17 -18 -18 -18 -18 -19 -19 -19 -20 -20 -20 -20 -20 -20 -20 -21 -22 -22 -23
-16 -16 -16 -16 -16 -16 -16 -16 -16 -16 -16 -16 -16 -16 -16 -16 -16 -16 -16 -16 -16 -17 -17 -17 -17 -18 -18 -18 -19 -19 -20 -20 -20 -20 -20 -20 -20 -20 -21 -22 -22 -23 -23
-16 -16 -16 -16 -16 -16 -16 -16 -16 -16 -16 -16 -16 -16 -16 -16 -16 -16 -16 -16 -17 -17 -17 -17 -18 -18 -18 -19 -19 -19 -20 -20 -20 -20 -20 -20 -21 -21 -22 -22 -23 -24 -24
-16 -16 -16 -16 -16 -16 -16 -16 -16 -16 -16 -16 -16 -16 -16 -16 -16 -16 -16 -17 -17 -17 -17 -18 -18 -19 -19 -19 -20 -20 -20 -21 -21 -21 -21 -21 -22 -22 -23 -23 -24 -25 -26
-16 -16 -16 -16 -16 -16 -16 -16 -16 -16 -16 -17 -17 -16 -16 -16 -16 -16 -16 -17 -17 -18 -18 -18 -18 -18 -19 -20 -20 -20 -21 -21 -21 -21 -22 -23 -23 -23 -24 -25 -25 -27 -29
-16 -17 -16 -16 -16 -16 -16 -16 -16 -16 -17 -17 -17 -16 -16 -16 -16 -16 -16 -17 -17 -18 -18 -18 -18 -19 -20 -20 -20 -21 -21 -21 -22 -21 -23 -23 -24 -24 -25 -26 -27 -29 -30
-16 -16 -17 -17 -17 -16 -17 -17 -16 -17 -17 -17 -16 -16 -16 -16 -16 -17 -17 -17 -17 -18 -18 -18 -18 -20 -20 -21 -21 -21 -21 -22 -22 -22 -23 -24 -24 -25 -26 -27 -29 -30 -30
-16 -16 -16 -17 -17 -17 -17 -17 -17 -17 -16 -16 -16 -16 -16 -16 -16 -17 -17 -18 -18 -18 -18 -19 -20 -20 -20 -21 -21 -21 -22 -22 -22 -23 -24 -25 -25 -26 -27 -29 -30 -31 -31
-16 -16 -16 -16 -16 -16 -16 -16 -16 -16 -16 -16 -16 -16 -16 -16 -16 -17 -17 -18 -18 -18 -19 -20 -21 -21 -21 -21 -21 -21 -22 -22 -23 -24 -25 -25 -26 -27 -28 -30 -30 -31 -31
-17 -17 -16 -16 -16 -16 -16 -16 -16 -16 -16 -16 -16 -16 -16 -16 -17 -17 -18 -18 -19 -19 -20 -21 -21 -21 -22 -22 -22 -22 -22 -23 -24 -25 -25 -26 -27 -28 -30 -31 -31 -31 -31
-17 -17 -16 -16 -16 -16 -16 -16 -16 -16 -16 -16 -16 -16 -16 -16 -17 -18 -18 -19 -19 -20 -21 -21 -21 -22 -22 -22 -22 -23 -23 -24 -25 -25 -26 -27 -28 -30 -31 -31 -31 -32 -32
-17 -17 -17 -17 -16 -16 -16 -16 -16 -16 -16 -16 -16 -16 -16 -17 -18 -18 -19 -19 -20 -21 -21 -21 -22 -22 -22 -22 -23 -23 -24 -25 -26 -26 -27 -28 -30 -31 -31 -31 -32 -32 -32
-17 -17 -17 -17 -16 -16 -16 -16 -16 -16 -17 -17 -17 -17 -17 -18 -18 -19 -19 -20 -21 -21 -21 -22 -22 -22 -22 -23 -24 -25 -25 -26 -26 -27 -28 -30 -31 -32 -32 -32 -32 -32 -32
-17 -17 -16 -16 -16 -16 -16 -16 -17 -17 -17 -17 -17 -17 -17 -18 -19 -19 -20 -21 -21 -21 -22 -22 -22 -22 -23 -23 -25 -25 -26 -26 -27 -28 -30 -31 -32 -32 -32 -32 -32 -33 -33
-17 -17 -16 -16 -16 -16 -17 -17 -17 -17 -17 -17 -17 -18 -18 -19 -19 -20 -21 -21 -21 -21 -22 -22 -22 -23 -24 -25 -25 -26 -26 -27 -28 -30 -32 -32 -32 -32 -32 -32 -33 -33 -33
-17 -17 -17 -17 -17 -17 -17 -17 -17 -18 -18 -18 -18 -18 -19 -20 -20 -21 -21 -21 -22 -22 -22 -22 -22 -23 -25 -25 -26 -27 -28 -29 -31 -32 -32 -32 -32 -32 -32 -33 -33 -33 -33
-17 -17 -17 -17 -17 -18 -18 -18 -18 -18 -18 -18 -18 -19 -19 -20 -21 -21 -21 -22 -22 -22 -22 -23 -23 -24 -25 -26 -26 -28 -30 -31 -32 -32 -32 -32 -32 -32 -32 -33 -33 -33 -34
-17 -17 -17 -18 -18 -18 -18 -18 -18 -18 -18 -19 -19 -20 -20 -21 -21 -22 -22 -22 -23 -23 -23 -23 -24 -25 -25 -26 -27 -28 -30 -31 -32 -32 -32 -32 -32 -33 -33 -33 -34 -34 -34
-18 -18 -18 -18 -18 -19 -19 -18 -18 -19 -19 -20 -20 -20 -21 -21 -22 -22 -23 -23 -23 -24 -25 -26 -26 -27 -27 -28 -29 -30 -31 -32 -32 -32 -32 -32 -33 -33 -33 -34 -35 -36 -34
Height
5775 5777 5778 5779 5779 5780 5782 5784 5785 5786 5786 5786 5787 5788 5788 5790 5792 5792 5792 5794 5795 5795 5795 5792 5788 5783 5782 5778 5773 5768 5763 5759 5754 5749 5745 5741 5737 5733 5728 5723 5718 5713 5709
5777 5777 5777 5778 5779 5780 5781 5783 5783 5784 5784 5784 5785 5785 5787 5787 5787 5789 5791 5792 5792 5790 5788 5784 5779 5777 5774 5770 5765 5761 5755 5750 5745 5740 5735 5731 5727 5722 5716 5710 5705 5700 5695
5776 5777 5778 5778 5779 5780 5780 5780 5780 5780 5780 5780 5781 5784 5784 5784 5784 5785 5786 5786 5785 5783 5779 5773 5772 5770 5767 5763 5757 5752 5747 5740 5735 5731 5726 5720 5715 5709 5704 5698 5692 5686 5680
5775 5776 5776 5777 5778 5779 5778 5779 5780 5779 5777 5778 5779 5780 5780 5781 5780 5781 5781 5779 5777 5773 5769 5767 5765 5761 5757 5753 5747 5741 5735 5730 5726 5721 5715 5709 5703 5696 5691 5685 5677 5671 5664
5773 5774 5774 5775 5775 5776 5776 5776 5776 5776 5777 5777 5777 5777 5778 5778 5777 5775 5774 5772 5768 5765 5762 5759 5755 5752 5747 5743 5738 5732 5726 5720 5716 5709 5702 5696 5690 5683 5677 5671 5663 5655 5645
5772 5772 5772 5771 5772 5772 5773 5773 5773 5773 5774 5774 5774 5774 5774 5773 5771 5770 5768 5765 5761 5757 5753 5750 5746 5741 5737 5732 5727 5724 5718 5711 5704 5698 5690 5682 5676 5669 5662 5655 5647 5637 5627
5769 5769 5769 5769 5769 5769 5770 5770 5770 5770 5770 5771 5771 5770 5768 5766 5764 5762 5758 5755 5753 5750 5746 5742 5738 5733 5727 5722 5717 5711 5704 5698 5691 5684 5676 5669 5661 5653 5646 5638 5629 5621 5611
5767 5766 5766 5765 5765 5765 5765 5766 5766 5766 5767 5767 5766 5764 5762 5759 5756 5753 5751 5748 5745 5742 5739 5734 5729 5724 5718 5712 5707 5699 5693 5686 5678 5670 5662 5654 5646 5638 5629 5620 5611 5602 5592
5763 5763 5762 5761 5761 5760 5760 5760 5761 5762 5762 5761 5759 5757 5754 5751 5748 5745 5743 5740 5737 5733 5729 5724 5719 5715 5710 5703 5695 5687 5679 5670 5663 5656 5648 5639 5631 5622 5612 5602 5591 5580 5573
5756 5757 5757 5757 5757 5756 5755 5754 5755 5756 5755 5754 5752 5750 5746 5742 5739 5737 5735 5731 5727 5723 5718 5714 5710 5704 5699 5690 5681 5673 5664 5657 5650 5643 5633 5624 5615 5604 5594 5583 5574 5563 5553
5750 5751 5752 5752 5752 5751 5751 5750 5750 5750 5749 5746 5743 5741 5738 5735 5732 5729 5726 5722 5718 5714 5708 5704 5699 5692 5683 5675 5667 5660 5652 5644 5636 5626 5617 5608 5599 5588 5578 5567 5556 5547 5536
5743 5745 5746 5746 5746 5746 5746 5746 5745 5744 5742 5739 5736 5732 5730 5727 5723 5720 5716 5712 5710 5704 5698 5692 5686 5678 5669 5663 5656 5647 5638 5630 5621 5613 5604 5593 5583 5572 5562 5552 5542 5531 5521
5738 5738 5738 5739 5740 5740 5739 5739 5739 5738 5735 5732 5729 5726 5722 5718 5714 5710 5706 5702 5696 5691 5684 5678 5672 5664 5656 5649 5643 5633 5623 5616 5608 5599 5589 5577 5567 5557 5547 5537 5526 5517 5507
5731 5732 5732 5732 5732 5731 5731 5731 5729 5728 5726 5723 5720 5717 5714 5710 5705 5700 5695 5689 5684 5678 5671 5664 5657 5652 5645 5637 5629 5620 5612 5603 5593 5582 5572 5561 5550 5541 5531 5521 5511 5503 5495
5724 5724 5725 5725 5726 5726 5725 5724 5723 5721 5718 5715 5712 5708 5703 5697 5692 5687 5683 5677 5670 5663 5656 5650 5644 5638 5630 5623 5615 5607 5598 5588 5577 5566 5556 5546 5536 5526 5515 5506 5498 5490 5482
5718 5718 5718 5718 5718 5718 5718 5716 5713 5711 5709 5705 5699 5694 5689 5685 5681 5675 5669 5662 5656 5650 5644 5638 5631 5625 5616 5608 5600 5592 5583 5572 5562 5552 5541 5530 5520 5510 5501 5492 5485 5477 5470
5710 5710 5710 5711 5710 5709 5708 5706 5704 5701 5697 5692 5688 5684 5679 5674 5668 5662 5656 5649 5643 5637 5630 5626 5620 5611 5603 5593 5585 5575 5566 5556 5546 5535 5524 5514 5504 5493 5485 5479 5472 5464 5458
5701 5702 5702 5702 5700 5699 5698 5695 5692 5688 5685 5681 5677 5672 5667 5662 5655 5649 5642 5635 5629 5624 5618 5611 5604 5596 5587 5577 5568 5558 5548 5540 5530 5519 5507 5497 5486 5478 5471 5465 5459 5452 5445
5694 5695 5694 5693 5692 5690 5688 5684 5681 5678 5674 5670 5666 5661 5655 5648 5641 5635 5628 5621 5616 5609 5603 5596 5589 5581 5572 5560 5550 5541 5532 5523 5513 5502 5491 5480 5470 5462 5457 5453 5446 5440 5432
5686 5686 5685 5684 5683 5680 5677 5674 5670 5667 5663 5659 5653 5647 5641 5634 5627 5621 5615 5608 5601 5595 5589 5582 5573 5564 5554 5542 5532 5523 5514 5505 5495 5485 5474 5464 5456 5448 5444 5440 5432 5427 5419
5679 5678 5677 5675 5673 5670 5668 5665 5661 5657 5651 5646 5640 5633 5627 5620 5614 5607 5600 5593 5587 5580 5573 5566 5556 5547 5536 5527 5516 5505 5494 5483 5475 5465 5455 5448 5441 5434 5429 5425 5420 5413 5406
5671 5670 5669 5667 5664 5660 5657 5653 5649 5644 5638 5633 5626 5620 5614 5607 5599 5592 5585 5578 5572 5565 5557 5550 5541 5528 5516 5505 5497 5486 5475 5463 5453 5445 5439 5432 5425 5420 5415 5410 5406 5398 5393
5663 5662 5659 5656 5653 5649 5645 5640 5635 5630 5625 5619 5613 5606 5599 5592 5584 5577 5570 5562 5556 5549 5541 5532 5524 5514 5500 5487 5472 5462 5452 5441 5431 5427 5422 5415 5409 5404 5400 5394 5389 5383 5379
5653 5651 5648 5644 5640 5636 5632 5628 5622 5617 5611 5604 5597 5590 5583 5576 5569 5561 5554 5545 5538 5529 5521 5512 5504 5495 5483 5468 5456 5444 5432 5421 5411 5407 5403 5397 5391 5387 5382 5377 5372 5368 5365
5642 5639 5636 5632 5628 5623 5619 5613 5607 5601 5595 5588 5581 5575 5567 5560 5552 5545 5537 5528 5518 5509 5501 5490 5479 5469 5461 5447 5434 5421 5412 5403 5395 5386 5380 5376 5371 5367 5363 5359 5355 5351 5349
5631 5627 5623 5618 5614 5608 5603 5597 5591 5585 5578 5571 5565 5558 5551 5545 5538 5529 5519 5509 5499 5488 5477 5466 5455 5442 5431 5421 5409 5398 5388 5378 5370 5363 5357 5353 5349 5346 5343 5340 5339 5336 5333
Wind_Speed
9 11 12 12 11 11 12 12 12 11 10 10 11 13 12 13 13 10 10 13 16 18 21 25 28 30 34 38 42 46 46 45 41 43 46 47 46 48 49 49 49 50 51
9 10 11 12 11 10 11 12 14 12 10 10 14 14 14 13 12 14 15 17 21 23 27 30 31 34 37 41 43 45 46 45 46 48 51 51 52 54 51 52 52 54 56
10 12 12 10 8 6 5 7 9 10 10 10 11 15 15 15 14 16 18 21 25 29 31 32 35 38 42 42 46 49 49 48 52 55 56 56 56 56 55 56 58 60 62
10 10 11 12 10 8 6 8 11 14 14 16 16 17 16 16 18 19 23 26 30 31 33 36 37 41 44 47 49 49 50 50 56 57 55 56 57 58 58 59 63 65 68
14 14 14 14 13 15 13 11 11 16 17 17 18 19 20 21 23 22 26 29 32 35 38 39 41 44 47 52 48 51 56 59 63 61 60 59 59 60 62 65 68 71 75
21 20 21 21 19 19 17 17 16 17 17 16 18 20 24 24 24 25 27 30 32 35 38 39 42 49 52 53 52 56 55 60 65 61 60 60 61 64 68 72 74 76 77
23 22 25 25 25 23 21 21 20 18 18 17 22 25 29 24 25 25 30 31 35 34 37 38 46 50 52 56 58 63 62 65 66 63 61 61 64 68 74 77 78 78 83
17 17 24 29 30 29 28 25 21 19 19 20 22 22 24 28 28 29 30 33 35 36 36 44 52 56 57 52 56 66 65 67 65 64 65 67 70 74 80 81 81 84 84
15 17 24 27 26 27 28 25 22 18 20 20 22 25 28 30 29 30 33 36 37 38 44 48 52 56 44 63 66 66 67 66 64 66 71 74 76 80 83 85 85 87 87
19 16 16 18 17 16 18 20 19 21 22 24 27 27 30 30 30 33 34 37 38 41 47 50 56 59 62 66 68 67 68 66 65 68 71 75 78 82 83 85 85 86 86
22 20 18 17 17 18 19 21 21 23 25 29 31 30 31 33 34 36 40 38 38 45 53 56 58 63 65 64 64 64 64 68 69 71 78 79 82 85 83 84 83 84 80
23 22 20 20 23 21 24 25 26 27 29 30 32 34 34 37 40 42 40 42 43 49 57 57 61 63 64 59 61 65 67 68 71 70 78 82 85 82 83 82 82 79 69
23 26 30 27 25 24 26 26 28 30 32 35 36 36 38 40 41 42 44 46 50 53 58 58 59 61 60 61 61 63 66 68 70 76 83 78 80 81 81 81 78 69 62
21 23 23 23 25 26 27 28 31 34 36 37 37 37 39 39 40 41 41 47 51 54 55 58 60 56 59 60 61 63 68 75 80 84 82 81 81 80 80 76 67 61 60
21 22 23 25 26 28 30 31 33 35 36 36 37 37 38 39 40 42 46 49 53 56 58 58 55 56 53 61 65 68 72 75 79 80 80 80 81 80 79 67 60 60 61
23 25 26 27 28 29 30 32 34 33 33 34 36 39 42 44 46 48 50 53 55 57 57 54 56 53 61 66 66 72 77 79 79 78 80 81 81 80 73 61 58 58 59
25 26 28 29 30 30 31 31 31 32 34 36 39 42 45 47 50 51 53 55 55 54 54 51 49 58 59 65 70 75 77 77 77 80 82 82 80 75 63 60 57 56 57
26 28 29 30 30 31 30 30 32 34 37 40 42 45 47 50 51 52 53 54 53 50 50 55 53 61 65 69 72 75 76 78 79 81 82 82 76 66 62 58 54 56 57
25 25 26 28 28 29 30 32 35 37 40 42 44 47 50 52 53 53 55 56 54 54 55 57 61 64 68 72 75 76 77 79 81 83 82 78 67 62 60 55 55 56 56
23 25 27 27 27 29 32 35 38 41 43 45 47 50 52 53 54 55 56 55 54 55 57 60 64 68 72 74 75 77 79 82 84 83 78 68 60 59 58 55 56 55 56
24 24 25 27 30 33 36 38 41 43 45 48 50 52 54 55 56 57 56 55 55 58 61 63 67 72 74 75 77 80 83 84 84 79 67 60 58 57 56 54 54 55 56
22 25 28 31 34 37 39 41 43 45 47 50 52 54 55 56 57 56 55 56 58 60 63 67 71 73 76 78 80 83 84 84 79 67 59 58 58 57 56 55 54 57 57
25 28 32 36 38 40 42 44 46 47 49 52 54 56 57 57 56 55 56 59 61 65 70 73 75 77 79 82 83 83 83 77 70 63 60 61 60 59 57 58 58 59 58
30 34 37 40 42 43 45 46 48 50 52 55 58 59 60 59 58 58 60 65 69 73 76 78 80 82 82 83 84 82 77 72 71 68 67 67 65 62 60 59 59 59 56
37 40 42 44 45 46 48 50 52 54 56 59 60 61 60 60 60 64 67 71 76 78 81 83 86 87 87 86 86 82 77 73 71 71 72 70 67 64 62 59 58 57 51
43 45 47 48 48 49 52 55 56 57 59 61 61 61 60 61 63 67 72 77 79 80 81 83 85 86 87 85 82 81 80 78 76 74 71 65 60 58 56 55 47 50 51
Wind_Direction
157 154 155 164 160 163 174 180 189 198 200 200 202 201 201 207 209 218 235 247 261 272 283 291 299 304 303 303 306 312 311 306 306 308 308 307 307 310 307 305 303 302 300
160 159 161 164 170 178 187 198 205 215 221 215 201 202 203 208 221 233 252 267 275 284 293 297 302 303 301 302 306 310 307 304 304 305 310 310 308 308 306 304 303 302 301
183 179 175 176 184 195 213 235 246 248 249 254 233 220 223 233 241 255 271 285 284 287 296 303 301 299 303 306 308 309 307 308 310 312 307 307 305 305 306 306 306 305 305
191 193 206 215 215 219 234 262 269 265 261 262 263 246 246 254 263 274 286 292 291 293 300 303 303 302 306 310 310 311 308 309 313 310 308 304 305 306 308 308 307 307 306
221 215 221 230 236 241 239 251 259 267 268 267 266 263 255 260 267 280 288 296 297 300 301 301 302 301 306 311 307 313 297 302 311 310 308 308 308 309 308 307 307 307 309
232 233 234 236 237 242 249 258 264 261 262 257 256 254 250 255 268 279 290 299 300 298 300 301 299 301 307 307 305 311 301 303 307 308 307 308 309 309 309 309 310 310 311
239 243 245 250 248 249 255 258 253 253 249 253 260 265 261 267 270 287 301 306 304 300 299 292 299 300 306 306 304 309 307 306 308 308 307 307 309 310 313 313 311 311 310
233 243 247 250 249 255 258 252 248 246 252 261 268 282 289 292 296 300 301 302 303 292 289 291 296 300 304 310 298 307 304 306 307 307 308 309 308 310 313 314 312 311 311
244 250 249 251 257 258 256 253 245 259 264 273 285 295 293 291 291 296 294 299 298 292 290 293 293 301 294 300 305 305 304 306 310 310 310 308 307 307 311 314 312 312 314
258 266 251 242 248 247 251 255 252 263 272 285 291 293 293 296 298 299 298 300 297 294 293 292 297 300 300 302 304 305 308 308 307 308 311 311 309 309 312 312 312 315 317
260 255 250 246 246 250 253 254 264 270 283 291 295 297 295 297 298 297 296 296 296 295 295 298 297 300 302 304 307 307 305 306 306 307 311 312 309 311 311 313 315 316 316
254 248 253 255 252 257 262 264 270 277 284 287 294 296 296 294 298 294 294 293 286 286 290 296 297 302 303 305 306 309 307 307 303 303 309 307 307 310 313 314 315 315 315
255 256 258 261 254 259 267 271 275 277 286 288 287 290 295 296 294 289 286 285 290 291 297 299 302 304 303 303 304 309 307 305 300 303 307 308 309 312 314 314 314 313 314
257 253 254 257 263 269 277 279 282 285 286 284 287 291 291 292 292 290 291 292 294 296 298 300 304 304 303 303 305 301 302 304 303 303 306 309 312 312 312 313 311 310 312
261 259 258 256 257 264 269 276 280 280 281 285 288 293 301 305 303 299 295 295 298 301 303 305 303 302 297 297 295 295 306 304 303 304 307 309 310 311 311 309 308 306 311
260 262 263 264 267 271 278 281 282 284 290 295 303 308 308 305 301 299 299 300 301 303 305 301 299 299 302 299 297 302 304 303 305 306 307 308 310 309 309 304 307 307 311
263 264 267 273 277 279 280 282 288 296 301 306 307 305 303 302 301 300 300 301 303 303 301 299 293 297 297 298 300 301 302 304 306 307 307 308 308 307 305 304 307 307 310
263 265 270 276 280 283 286 294 298 302 305 304 302 303 303 301 300 300 301 302 302 300 290 298 295 300 302 302 302 302 304 305 306 306 306 307 306 305 303 304 305 306 308
270 272 276 279 283 289 294 298 301 302 301 300 302 302 303 303 302 302 302 301 300 299 298 299 300 302 303 303 304 304 304 304 305 305 306 305 304 302 302 302 303 304 306
279 284 284 286 291 295 298 299 301 300 301 302 302 304 304 304 304 302 301 299 299 298 298 300 301 303 304 304 304 303 304 305 305 305 304 303 301 299 300 302 302 303 304
282 283 288 291 294 297 299 300 299 300 301 302 304 305 306 304 303 302 300 298 298 298 299 301 304 304 303 305 305 305 305 304 305 304 303 301 299 298 299 300 301 301 302
286 290 293 296 298 299 299 299 301 302 302 303 304 304 303 302 301 299 298 297 298 299 302 305 306 306 306 306 305 304 304 305 304 303 303 301 299 299 299 299 298 298 299
291 295 297 298 298 298 300 302 302 301 302 303 303 303 303 303 301 299 299 300 301 304 307 307 307 307 307 306 305 306 306 304 302 302 300 300 298 297 296 296 296 295 297
296 297 298 298 299 300 301 302 302 303 303 303 303 304 305 304 301 299 301 304 307 308 309 308 307 308 307 307 307 306 303 301 299 297 296 296 295 293 292 292 292 293 295
298 298 298 298 297 297 299 305 307 305 304 304 305 305 304 303 301 302 305 308 309 308 308 308 309 309 310 309 308 306 303 300 296 294 294 294 293 290 288 289 289 289 290
297 298 298 298 299 301 304 306 305 304 304 305 305 305 304 304 304 306 307 308 308 307 309 310 310 310 309 309 307 305 302 299 296 294 294 293 291 288 285 285 284 284 288